• In Hungary
  • List of Countries
  • For 7 days
  • Water Temperature
  • Satellite Maps
  • Weather Map
  • News
  • Weather Widgets
  • user-avatar
    Login

    Hourly Weather Malahovka

    Today, 25 September, Tuesday

    Time Temperature Precipitation Wind Pressure Humidity
    00:00 +5°C° 0.1 mm 7 mps 732 mmHg 88%
    01:00 +5°C° 0.1 mm 7 mps 732 mmHg 88%
    02:00 +6°C° 0 mm 5 mps 733 mmHg 88%
    03:00 +5°C° 0.1 mm 6 mps 734 mmHg 88%
    04:00 +5°C° 0.1 mm 6 mps 734 mmHg 88%
    05:00 +5°C° 0.1 mm 6 mps 735 mmHg 87%
    06:00 +5°C° 0 mm 6 mps 736 mmHg 86%
    07:00 +5°C° 0 mm 7 mps 736 mmHg 85%
    08:00 +5°C° 0 mm 7 mps 737 mmHg 83%
    09:00 +5°C° 0 mm 7 mps 738 mmHg 82%
    10:00 +5°C° 0 mm 7 mps 739 mmHg 81%
    11:00 +5°C° 0 mm 6 mps 739 mmHg 80%
    12:00 +5°C° 0 mm 6 mps 740 mmHg 79%
    13:00 +5°C° 0 mm 6 mps 741 mmHg 78%
    14:00 +5°C° 0 mm 6 mps 741 mmHg 76%
    15:00 +6°C° 0 mm 5 mps 742 mmHg 76%
    16:00 +6°C° 0 mm 5 mps 742 mmHg 76%
    17:00 +6°C° 0 mm 4 mps 743 mmHg 75%
    18:00 +5°C° 0 mm 4 mps 743 mmHg 78%
    19:00 +4°C° 0 mm 4 mps 744 mmHg 81%
    20:00 +4°C° 0 mm 4 mps 744 mmHg 84%
    21:00 +3°C° 0 mm 4 mps 745 mmHg 84%
    22:00 +3°C° 0 mm 4 mps 746 mmHg 85%
    23:00 +3°C° 0 mm 4 mps 746 mmHg 86%

    Tomorrow, 26 September, Wednesday

    Time Temperature Precipitation Wind Pressure Humidity
    00:00 +1°C° 0 mm 4 mps 747 mmHg 87%
    01:00 +2°C° 0 mm 3 mps 747 mmHg 87%
    02:00 +1°C° 0 mm 3 mps 748 mmHg 88%
    03:00 +1°C° 0 mm 3 mps 748 mmHg 88%
    04:00 +1°C° 0 mm 3 mps 749 mmHg 88%
    05:00 0°C° 0 mm 3 mps 749 mmHg 88%
    06:00 +1°C° 0 mm 3 mps 750 mmHg 84%
    07:00 +2°C° 0 mm 3 mps 750 mmHg 81%
    08:00 +3°C° 0 mm 4 mps 751 mmHg 78%
    09:00 +5°C° 0 mm 4 mps 751 mmHg 73%
    10:00 +7°C° 0 mm 4 mps 751 mmHg 67%
    11:00 +8°C° 0 mm 4 mps 751 mmHg 62%
    12:00 +10°C° 0 mm 4 mps 751 mmHg 59%
    13:00 +10°C° 0 mm 5 mps 750 mmHg 56%
    14:00 +10°C° 0 mm 5 mps 750 mmHg 53%
    15:00 +9°C° 0 mm 5 mps 749 mmHg 57%
    16:00 +10°C° 0 mm 4 mps 749 mmHg 60%
    17:00 +8°C° 0 mm 4 mps 748 mmHg 64%
    18:00 +7°C° 0 mm 5 mps 748 mmHg 62%
    19:00 +7°C° 0 mm 5 mps 747 mmHg 60%
    20:00 +7°C° 0 mm 6 mps 747 mmHg 59%
    21:00 +7°C° 0.3 mm 6 mps 746 mmHg 64%
    22:00 +5°C° 0.3 mm 7 mps 745 mmHg 70%
    23:00 +5°C° 0.3 mm 8 mps 744 mmHg 76%

    Day after tomorrow, 27 September, Thursday

    Time Temperature Precipitation Wind Pressure Humidity
    00:00 +4°C° 0.5 mm 8 mps 743 mmHg 79%
    01:00 +3°C° 0.5 mm 9 mps 742 mmHg 82%
    02:00 +3°C° 0.5 mm 9 mps 741 mmHg 86%
    03:00 +3°C° 0.9 mm 9 mps 740 mmHg 87%
    04:00 +5°C° 0.9 mm 9 mps 740 mmHg 88%
    05:00 +5°C° 0.9 mm 9 mps 739 mmHg 89%
    06:00 +5°C° 0.5 mm 9 mps 738 mmHg 90%
    07:00 +6°C° 0.5 mm 8 mps 738 mmHg 90%
    08:00 +6°C° 0.5 mm 8 mps 738 mmHg 90%
    09:00 +7°C° 0.6 mm 8 mps 738 mmHg 90%
    10:00 +8°C° 0.6 mm 7 mps 738 mmHg 90%
    11:00 +9°C° 0.6 mm 6 mps 738 mmHg 91%
    12:00 +10°C° 0.2 mm 6 mps 738 mmHg 85%
    13:00 +10°C° 0.2 mm 6 mps 738 mmHg 80%
    14:00 +11°C° 0.2 mm 6 mps 738 mmHg 75%
    15:00 +10°C° 0 mm 5 mps 739 mmHg 76%
    16:00 +11°C° 0 mm 4 mps 739 mmHg 77%
    17:00 +10°C° 0 mm 4 mps 739 mmHg 77%
    18:00 +10°C° 0 mm 4 mps 740 mmHg 80%
    19:00 +8°C° 0 mm 4 mps 740 mmHg 83%
    20:00 +7°C° 0 mm 4 mps 741 mmHg 86%
    21:00 +7°C° 0 mm 4 mps 741 mmHg 87%
    22:00 +6°C° 0 mm 4 mps 741 mmHg 88%
    23:00 +6°C° 0 mm 4 mps 742 mmHg 89%

    28 September, Friday

    Time Temperature Precipitation Wind Pressure Humidity
    00:00 +7°C° 0 mm 3 mps 742 mmHg 90%
    01:00 +5°C° 0 mm 3 mps 742 mmHg 91%
    02:00 +4°C° 0 mm 3 mps 742 mmHg 92%
    03:00 +5°C° 0 mm 4 mps 741 mmHg 93%
    04:00 +5°C° 0 mm 4 mps 741 mmHg 94%
    05:00 +5°C° 0 mm 4 mps 740 mmHg 94%
    06:00 +5°C° 0 mm 6 mps 739 mmHg 92%
    07:00 +8°C° 0 mm 7 mps 739 mmHg 89%
    08:00 +9°C° 0 mm 8 mps 738 mmHg 87%
    09:00 +10°C° 0.1 mm 8 mps 738 mmHg 86%
    10:00 +11°C° 0.1 mm 9 mps 737 mmHg 84%
    11:00 +12°C° 0.1 mm 9 mps 736 mmHg 83%
    12:00 +12°C° 0.7 mm 9 mps 736 mmHg 84%
    13:00 +12°C° 0.7 mm 9 mps 735 mmHg 86%
    14:00 +12°C° 0.7 mm 9 mps 735 mmHg 87%
    15:00 +12°C° 0.5 mm 8 mps 735 mmHg 85%
    16:00 +11°C° 0.5 mm 8 mps 736 mmHg 83%
    17:00 +11°C° 0.5 mm 7 mps 736 mmHg 81%
    18:00 +9°C° 0 mm 6 mps 737 mmHg 83%
    19:00 +7°C° 0 mm 5 mps 739 mmHg 86%
    20:00 +5°C° 0 mm 4 mps 740 mmHg 88%
    21:00 +4°C° 0 mm 3 mps 740 mmHg 90%
    22:00 +3°C° 0 mm 3 mps 741 mmHg 92%
    23:00 +3°C° 0 mm 2 mps 742 mmHg 94%

    29 September, Saturday

    Time Temperature Precipitation Wind Pressure Humidity
    00:00 +3°C° 0 mm 2 mps 742 mmHg 94%
    01:00 +3°C° 0 mm 1 mps 743 mmHg 94%
    02:00 +3°C° 0 mm 1 mps 743 mmHg 94%
    03:00 +3°C° 0 mm 1 mps 743 mmHg 93%
    04:00 +4°C° 0 mm 1 mps 744 mmHg 92%
    05:00 +4°C° 0 mm 1 mps 744 mmHg 91%
    06:00 +5°C° 0 mm 1 mps 744 mmHg 89%
    07:00 +4°C° 0 mm 2 mps 745 mmHg 87%
    08:00 +5°C° 0 mm 2 mps 745 mmHg 85%
    09:00 +6°C° 0 mm 2 mps 746 mmHg 81%
    10:00 +7°C° 0 mm 2 mps 746 mmHg 77%
    11:00 +8°C° 0 mm 2 mps 746 mmHg 73%
    12:00 +9°C° 0.1 mm 3 mps 747 mmHg 69%
    13:00 +9°C° 0.1 mm 3 mps 747 mmHg 64%
    14:00 +10°C° 0.1 mm 3 mps 747 mmHg 59%
    15:00 +9°C° 0 mm 3 mps 747 mmHg 62%
    16:00 +8°C° 0 mm 3 mps 747 mmHg 65%
    17:00 +7°C° 0 mm 2 mps 748 mmHg 69%
    18:00 +5°C° 0 mm 2 mps 748 mmHg 71%
    19:00 +4°C° 0 mm 2 mps 749 mmHg 74%
    20:00 +3°C° 0 mm 2 mps 749 mmHg 77%
    21:00 +3°C° 0 mm 2 mps 750 mmHg 79%
    22:00 +2°C° 0 mm 2 mps 750 mmHg 81%
    23:00 +2°C° 0 mm 2 mps 751 mmHg 83%

    30 September, Sunday

    Time Temperature Precipitation Wind Pressure Humidity
    00:00 +2°C° 0 mm 1 mps 751 mmHg 84%
    01:00 +2°C° 0 mm 1 mps 751 mmHg 85%
    02:00 +2°C° 0 mm 1 mps 751 mmHg 87%
    03:00 +1°C° 0 mm 1 mps 752 mmHg 87%
    04:00 +1°C° 0 mm 1 mps 752 mmHg 87%
    05:00 +1°C° 0 mm 1 mps 752 mmHg 88%
    06:00 +2°C° 0 mm 1 mps 752 mmHg 82%
    07:00 +4°C° 0 mm 1 mps 752 mmHg 76%
    08:00 +5°C° 0 mm 1 mps 752 mmHg 71%
    09:00 +5°C° 0 mm 2 mps 752 mmHg 64%
    10:00 +7°C° 0 mm 2 mps 752 mmHg 58%
    11:00 +8°C° 0 mm 2 mps 753 mmHg 51%
    12:00 +9°C° 0 mm 3 mps 752 mmHg 50%
    13:00 +9°C° 0 mm 3 mps 752 mmHg 49%
    14:00 +10°C° 0 mm 3 mps 751 mmHg 48%
    15:00 +9°C° 0 mm 3 mps 751 mmHg 54%
    16:00 +8°C° 0 mm 2 mps 751 mmHg 59%
    17:00 +7°C° 0 mm 2 mps 751 mmHg 65%
    18:00 +6°C° 0 mm 2 mps 751 mmHg 66%
    19:00 +5°C° 0 mm 2 mps 751 mmHg 68%
    20:00 +4°C° 0 mm 2 mps 751 mmHg 70%
    21:00 +4°C° 0 mm 2 mps 751 mmHg 70%
    22:00 +3°C° 0 mm 2 mps 751 mmHg 70%
    23:00 +3°C° 0 mm 2 mps 751 mmHg 71%
    Show more